Theta_e
302 300 299 299 299 298 297 296 296 296 296 297 298 299 300 300 299 298 299 299 299 298 299 299 298 297 297 295 295 296 296 296 296 296 296 296 296 296 297 296 296 295 294 294 294 293 292 291 290 290 291 291 291 291 291 291 290 290 289 290 289 289 288 288 289 290 289 286 287 288 288 290 290 289 289 289 289 289 289 290 289 290 289 289 289
300 298 298 296 297 296 295 295 295 295 295 295 297 298 299 300 299 299 299 298 298 298 299 299 299 298 296 296 297 297 295 295 294 295 295 296 296 296 296 296 296 295 294 294 294 293 292 290 290 289 290 290 291 291 290 290 289 289 289 288 288 289 289 288 288 289 289 289 286 286 286 288 290 288 288 288 289 289 289 290 290 290 289 289 289
297 297 298 295 295 294 293 294 294 295 296 296 297 297 298 298 299 299 298 298 298 298 298 298 299 299 298 297 297 296 296 296 296 296 296 295 295 295 296 296 296 295 294 294 293 293 292 291 290 290 290 290 289 289 289 289 288 288 289 289 287 288 289 288 287 289 291 289 290 288 286 285 287 287 288 287 288 289 289 289 289 289 288 288 288
296 296 296 295 294 294 292 293 294 293 293 293 294 296 297 298 298 298 297 298 298 298 298 299 299 298 297 296 297 296 294 295 295 294 295 294 293 294 295 295 295 295 294 294 293 293 292 291 291 289 289 290 290 289 289 289 288 288 288 289 290 287 288 287 288 286 287 290 289 289 286 287 286 286 287 287 286 287 288 288 288 288 288 288 288
295 295 296 295 295 295 295 294 291 292 293 293 294 295 296 297 298 298 297 297 297 297 298 298 297 295 294 294 294 293 293 294 293 292 293 293 293 293 293 294 294 294 294 293 293 293 293 292 291 290 289 289 290 289 288 289 288 288 289 288 289 290 287 288 287 287 286 286 291 284 285 286 289 288 285 285 285 286 286 287 288 288 288 288 287
295 295 295 294 294 294 293 292 291 291 292 293 293 294 295 296 297 297 297 297 297 297 297 297 296 295 293 292 291 292 291 291 290 291 291 291 292 293 293 293 294 294 294 293 294 293 292 292 291 290 289 289 289 289 289 289 288 288 288 288 289 290 290 287 286 287 286 288 286 287 292 295 289 286 287 286 283 286 286 286 286 286 287 287 287
293 293 295 295 294 292 294 294 293 291 292 292 292 292 293 294 295 296 296 296 296 296 297 296 296 295 294 294 294 293 293 293 294 295 293 293 294 292 292 293 293 293 293 293 293 293 292 292 291 290 290 289 289 289 288 289 288 288 288 288 289 289 289 288 288 286 285 286 286 287 287 285 289 287 287 285 285 285 285 285 285 285 285 286 286
293 293 294 293 292 292 293 293 292 292 290 289 290 291 292 293 294 295 295 295 296 296 296 296 296 295 295 295 295 295 295 295 294 294 294 294 293 292 292 292 293 293 293 293 293 293 292 291 291 290 290 289 289 288 288 289 289 289 288 288 288 288 289 290 288 287 286 286 286 286 285 285 286 287 289 291 290 286 285 284 284 285 284 285 286
291 292 292 292 293 292 291 292 291 288 288 288 289 290 291 291 292 293 294 294 295 295 295 296 296 295 295 295 294 295 296 295 294 294 293 293 292 292 291 291 292 292 293 292 292 292 292 291 291 290 289 289 288 289 288 289 288 288 287 286 286 286 287 289 288 286 288 287 284 283 285 285 285 285 284 288 288 288 285 283 285 284 285 285 285
291 291 292 292 292 291 290 288 290 289 286 286 288 288 289 289 290 291 291 292 293 294 295 295 295 295 294 294 294 295 294 292 293 292 292 292 292 292 291 291 291 291 291 292 292 292 292 291 290 290 290 289 288 288 288 288 288 288 288 287 287 286 286 287 288 288 287 288 288 287 286 284 286 286 286 284 283 287 288 285 285 285 283 285 284
290 291 292 291 290 290 289 292 290 289 286 286 287 287 288 288 288 289 290 291 291 293 293 294 294 294 294 294 294 294 294 292 291 291 291 291 291 291 291 291 291 290 291 291 291 291 291 291 290 290 290 289 288 288 287 287 287 287 287 287 287 286 286 286 287 288 286 286 286 286 287 287 287 285 285 284 287 283 282 283 283 283 285 285 284
289 290 290 291 292 293 292 293 291 291 289 287 286 286 287 287 288 288 288 289 290 291 291 292 293 293 293 294 293 294 293 292 291 291 291 290 291 291 291 290 290 290 290 290 290 290 290 290 290 290 289 289 288 288 288 287 287 287 287 286 286 286 287 285 286 286 285 285 286 286 287 288 289 288 287 286 286 286 286 285 285 283 282 283 284
289 289 289 291 291 291 291 291 291 290 289 288 286 286 286 287 286 287 288 288 289 290 290 291 291 292 292 292 293 293 293 293 292 292 291 291 291 291 290 289 289 289 289 289 289 290 290 289 289 289 289 289 289 288 288 288 287 286 286 286 286 286 285 285 285 286 285 285 285 285 286 286 287 286 286 286 286 286 286 284 282 282 283 284 282
287 287 289 290 290 290 290 290 290 289 288 288 288 286 286 286 286 286 287 287 287 288 289 290 290 291 291 291 291 292 292 293 292 292 292 291 292 291 290 290 290 289 289 289 290 290 289 290 289 289 289 289 289 288 288 287 287 286 286 286 286 286 286 285 285 286 285 286 286 285 284 285 285 284 285 285 284 284 283 284 282 280 280 281 281
286 288 288 288 288 288 289 289 288 288 288 288 288 287 286 286 285 285 286 286 286 287 287 288 289 289 290 290 290 290 291 292 292 293 292 291 291 291 291 291 291 290 290 291 291 289 289 290 289 289 289 288 288 288 287 287 286 286 286 286 286 286 285 285 285 285 284 284 285 285 285 284 284 283 284 285 285 286 286 285 283 281 280 279 279
288 288 288 288 288 287 287 287 287 287 287 287 287 286 286 286 285 285 285 285 285 286 286 287 288 288 288 289 289 289 289 290 290 291 290 290 290 290 290 291 291 291 291 291 290 290 289 289 289 289 288 288 288 287 287 286 286 285 285 285 285 285 285 284 284 284 284 284 284 284 284 284 283 283 284 285 285 286 286 285 286 285 283 281 279
288 288 287 287 286 286 287 287 287 287 287 287 286 286 285 285 285 285 285 285 285 285 286 286 287 287 288 288 288 288 288 289 289 289 289 289 289 289 289 290 290 290 290 290 290 289 289 289 288 288 288 288 287 287 287 286 286 285 285 285 284 285 284 284 284 283 284 284 284 284 284 284 283 283 283 283 284 284 284 284 285 285 285 283 281
287 287 286 286 286 286 286 287 287 287 287 287 287 286 286 285 284 285 285 285 286 286 286 286 286 286 287 287 287 287 288 288 288 288 288 288 288 288 288 289 289 289 289 289 289 288 288 287 288 287 287 287 287 286 286 286 285 285 285 284 285 284 284 284 284 284 283 283 283 283 283 283 283 282 283 283 283 283 283 283 283 283 284 283 283
285 285 285 285 285 285 286 286 287 287 287 287 288 288 287 287 286 286 285 285 285 286 286 286 286 287 288 287 287 287 287 288 288 288 288 288 287 287 287 288 288 288 288 288 288 288 288 287 287 287 287 286 286 286 286 285 285 284 284 284 284 283 283 283 283 283 283 282 282 281 282 282 282 282 282 282 282 282 282 282 282 283 281 283 282
284 284 285 285 285 285 285 286 286 286 286 287 287 288 287 287 287 287 287 286 286 286 285 285 286 286 286 286 287 287 287 288 288 288 287 287 287 287 287 287 288 288 288 288 288 288 287 287 287 287 286 286 286 285 285 285 284 284 284 283 283 283 282 282 282 282 282 282 282 281 281 282 281 282 281 281 281 282 282 282 282 281 281 281 282
283 283 284 284 284 285 285 285 286 286 286 286 287 286 287 287 287 287 286 287 287 287 286 286 285 286 285 286 286 286 286 287 287 287 287 287 287 287 287 287 287 287 287 287 287 287 287 287 287 286 286 285 285 285 285 284 284 283 283 283 282 282 282 282 282 281 281 281 281 281 281 281 281 281 281 281 281 281 281 281 281 281 281 280 280
282 283 283 284 284 285 285 285 285 285 285 285 286 286 286 285 286 286 286 287 286 287 286 286 285 285 285 286 286 285 286 286 286 286 286 286 286 286 287 286 286 287 287 287 287 287 287 287 287 286 286 286 285 285 284 284 283 283 283 283 282 281 281 282 281 280 280 280 281 280 280 280 280 280 280 280 280 280 280 280 280 280 280 279 280
282 282 283 283 283 283 284 284 285 285 284 284 285 285 285 285 285 285 285 285 286 286 286 286 285 285 285 285 285 285 285 285 285 286 286 286 287 286 286 286 286 286 286 287 287 287 287 287 286 286 286 285 285 284 284 283 283 283 283 282 282 281 281 281 281 280 280 280 280 280 280 279 279 279 279 280 280 280 280 279 279 279 279 279 279
282 282 283 283 283 283 283 283 284 284 284 284 284 285 285 285 285 285 285 285 286 286 286 286 286 285 285 284 284 284 284 285 285 285 285 286 287 287 286 285 286 286 285 286 286 287 286 286 286 286 286 285 285 284 284 283 283 283 283 282 282 281 281 282 281 280 280 280 279 279 279 279 279 279 279 279 279 279 279 279 279 279 279 279 279
281 281 281 282 282 282 282 283 283 283 284 284 284 284 284 284 284 284 284 285 286 286 286 286 286 286 286 285 285 285 284 284 284 285 285 286 286 287 286 286 285 285 285 285 285 286 286 286 285 285 285 285 285 284 284 283 283 283 283 283 282 282 281 281 281 281 281 280 279 279 279 279 278 278 278 278 278 278 278 278 278 278 278 278 278
281 281 281 281 282 282 282 282 283 283 284 284 284 284 284 284 284 284 284 285 285 286 285 286 286 285 285 285 285 285 285 285 285 285 285 286 286 286 286 286 286 285 285 285 285 285 285 285 285 286 286 285 285 285 284 284 283 283 283 283 282 282 281 281 281 281 281 280 280 280 280 279 278 278 278 278 278 278 278 278 277 277 277 277 277
281 281 281 281 281 282 282 282 283 283 284 284 284 283 284 284 284 284 284 284 285 285 285 285 285 285 285 285 285 284 284 284 284 285 285 285 285 286 286 286 286 286 285 285 285 284 285 285 285 285 285 285 285 285 284 284 283 283 283 282 282 282 281 281 281 281 281 280 280 280 280 279 278 279 278 278 277 277 277 277 277 277 277 276 276
281 280 280 280 281 281 282 282 283 283 284 284 284 284 284 283 283 283 284 284 285 284 284 284 284 284 284 284 285 285 285 284 284 284 285 285 285 285 285 285 286 285 285 285 285 284 284 284 285 285 285 285 285 284 284 284 283 283 283 282 282 282 281 281 281 281 281 280 280 280 280 279 279 279 279 278 278 277 277 277 277 276 276 275 274
280 280 280 281 281 281 281 282 283 283 283 283 283 283 283 283 283 283 283 283 284 284 284 284 284 284 284 285 285 285 285 285 285 284 284 284 285 285 285 285 285 285 285 285 285 285 284 283 284 284 284 285 284 284 284 284 283 283 283 282 282 282 281 280 280 280 280 280 280 280 280 279 279 280 281 280 279 279 277 275 275 275 274 274 273
281 281 282 282 282 282 282 282 282 282 282 283 283 282 282 282 282 282 283 284 284 284 283 283 283 284 284 285 285 284 284 284 284 284 284 284 284 284 285 285 285 285 285 285 285 284 284 284 283 283 284 284 284 284 285 285 285 283 282 282 282 281 281 280 280 280 279 279 279 279 279 280 280 280 281 281 281 281 280 278 276 275 274 273 272
282 282 282 282 282 282 282 282 282 282 282 282 282 282 282 281 281 281 282 283 284 283 283 283 283 284 284 284 284 284 284 283 284 284 284 284 283 284 284 284 284 284 284 284 284 284 284 284 283 283 283 283 284 284 286 287 287 286 283 282 281 281 281 280 280 280 279 279 278 279 279 279 280 280 280 281 281 281 281 280 279 278 277 274 272
282 282 282 282 281 281 280 280 280 281 281 281 281 281 280 280 281 281 282 283 282 283 282 283 283 284 284 284 284 284 283 283 283 283 283 283 283 283 283 283 283 283 283 283 282 283 283 284 283 283 283 283 283 285 286 287 287 287 286 282 282 281 280 280 280 279 279 279 278 278 278 278 279 279 279 280 281 281 281 280 279 279 279 278 277
281 281 281 281 280 280 280 280 280 281 281 281 281 280 280 281 280 281 282 282 282 282 282 282 283 283 283 283 283 283 283 283 283 283 282 282 281 282 282 282 282 283 283 282 282 282 282 283 283 283 283 283 283 286 286 287 287 287 287 285 282 281 280 280 280 279 279 278 278 277 277 276 277 279 279 279 279 280 281 280 280 279 279 279 279
281 280 280 280 280 280 280 280 280 281 281 282 281 280 281 281 281 281 281 282 281 281 281 282 282 282 283 283 283 283 282 282 283 283 282 281 280 280 281 281 282 282 282 282 282 282 282 282 282 282 282 283 283 285 286 287 287 287 288 286 282 281 280 280 279 279 279 278 277 277 276 275 276 278 278 278 278 279 279 278 278 277 277 278 279
279 280 280 280 280 280 280 280 280 281 281 281 280 280 280 279 280 280 281 281 280 280 280 281 281 281 282 282 282 282 282 282 282 282 282 281 281 280 280 281 281 281 281 282 282 281 281 281 282 282 282 282 282 285 286 286 287 287 288 287 283 281 280 280 280 279 279 278 277 277 276 275 276 277 277 277 277 277 277 276 276 276 276 277 278
281 281 282 282 281 280 280 280 281 281 280 279 279 279 278 278 279 279 279 280 279 279 279 280 280 280 280 281 281 281 281 282 282 282 282 282 282 281 281 280 280 280 280 280 280 280 280 281 281 281 281 281 281 284 285 286 287 287 288 286 284 281 280 279 279 279 278 278 277 276 276 275 275 276 278 280 279 278 276 275 275 275 275 276 277
282 283 282 283 282 281 280 280 280 280 279 279 278 278 277 276 277 277 278 278 278 278 278 279 279 279 279 280 279 279 279 281 282 282 282 281 282 281 281 281 279 279 279 279 279 280 280 280 280 280 280 280 280 283 285 285 286 287 287 285 284 281 280 279 278 278 278 277 276 276 275 275 275 275 278 281 281 280 276 275 274 274 275 275 276
282 283 283 282 282 281 280 280 279 279 279 278 277 276 275 275 275 275 275 276 276 276 277 278 278 278 278 278 278 278 279 281 282 282 281 281 281 281 281 280 279 279 278 278 279 279 279 279 279 279 279 279 280 281 283 285 286 286 286 284 283 282 279 278 278 278 277 277 276 277 276 275 275 275 279 281 282 279 275 275 274 274 274 274 275
281 281 280 280 279 279 279 279 278 278 278 276 275 273 274 274 274 274 274 274 274 275 276 276 277 277 277 276 276 277 279 281 281 281 280 279 279 280 280 280 279 278 278 278 278 278 278 278 278 279 280 280 279 280 283 284 285 286 286 285 283 281 279 278 277 276 276 276 275 276 277 277 276 276 280 282 282 280 275 275 275 274 273 273 274
278 278 279 279 278 277 277 277 277 277 277 274 273 272 272 273 273 273 272 272 273 274 275 275 275 274 274 274 275 276 279 280 279 278 278 278 279 279 279 279 279 278 277 277 277 277 276 277 277 277 277 278 279 279 280 283 284 285 286 285 283 280 278 277 276 275 274 274 274 275 277 279 279 279 280 282 283 282 276 276 275 274 273 272 275
278 277 279 278 278 277 277 276 277 276 275 272 271 271 271 272 272 272 271 272 274 274 274 273 273 272 272 272 274 276 277 277 277 276 276 276 277 277 277 277 278 278 278 277 276 276 276 276 277 277 277 278 278 278 279 282 283 284 286 286 282 280 279 277 275 274 274 273 273 274 275 278 280 280 281 282 283 283 279 276 275 274 275 275 276
276 277 276 276 275 274 274 274 274 274 273 271 270 270 271 271 270 270 271 273 273 272 272 271 271 270 271 271 273 275 275 274 273 273 273 273 274 275 276 276 277 277 276 276 277 276 276 276 276 276 276 277 278 279 278 280 282 283 285 286 283 279 279 277 275 274 274 273 274 274 275 277 280 280 281 282 283 283 281 276 275 278 278 278 275
276 275 274 274 273 273 273 273 273 272 271 271 268 269 270 270 269 270 271 271 271 270 270 269 269 269 270 270 271 271 270 270 270 271 270 270 272 273 274 275 276 276 275 275 275 276 275 275 275 275 275 275 276 276 279 278 280 282 284 285 286 282 282 278 276 274 274 274 274 275 275 278 280 281 281 282 284 284 281 276 278 279 279 279 277
274 273 273 270 271 272 272 272 272 271 269 270 268 268 269 269 269 271 270 269 268 268 268 268 268 268 268 268 268 268 268 268 268 269 269 269 270 271 273 274 275 275 275 275 276 275 275 274 274 275 275 274 274 275 277 279 279 281 283 284 285 285 282 278 277 276 275 275 274 275 276 279 280 281 281 282 283 283 280 279 279 280 279 279 273
273 273 271 269 270 270 270 270 271 271 270 268 267 267 267 267 269 269 268 267 267 267 266 266 266 265 266 266 266 266 266 266 266 267 267 269 269 271 271 273 274 275 275 274 275 275 274 274 274 274 275 275 273 273 274 276 279 280 281 283 284 285 283 282 277 276 276 275 276 278 278 279 280 281 282 282 283 283 282 279 280 280 279 275 271
271 271 270 269 269 268 268 268 269 269 269 268 267 267 266 268 269 268 267 266 265 265 265 264 264 264 264 264 264 264 264 265 265 266 267 268 269 270 271 272 274 274 275 274 274 275 275 274 274 274 275 275 274 273 273 274 276 278 279 281 283 284 284 282 280 277 277 278 278 279 279 280 280 281 280 279 280 281 282 280 280 280 275 270 270
270 270 269 268 267 267 267 267 267 268 268 267 266 266 267 267 267 267 266 264 264 263 263 263 263 263 263 263 262 263 263 264 264 265 267 268 269 270 271 272 273 274 274 274 275 274 274 274 274 274 275 275 274 273 273 273 274 275 276 278 279 281 284 283 280 277 277 277 277 278 277 279 279 281 281 280 280 281 280 279 278 273 270 270 269
269 268 266 265 266 266 266 266 266 267 268 267 267 266 266 266 265 265 263 262 262 262 262 262 262 262 262 262 262 263 263 263 263 264 265 266 267 268 269 270 271 272 273 274 274 274 274 274 274 275 275 274 273 273 273 272 273 274 275 276 278 279 281 281 278 276 276 276 276 278 278 278 278 279 279 278 277 276 273 269 268 269 269 268 269
267 267 266 265 265 265 265 265 265 266 266 266 265 266 266 265 265 262 261 260 261 261 261 260 261 261 260 261 261 261 262 262 262 263 264 265 266 266 268 269 271 273 274 274 274 275 275 275 275 275 275 274 274 273 273 276 274 276 275 275 276 277 279 280 279 278 275 275 275 275 275 275 276 275 272 271 271 270 268 268 267 267 267 267 267
266 266 265 264 264 264 264 264 264 265 265 264 264 264 264 264 262 261 260 260 260 260 259 259 259 259 259 260 260 260 261 261 261 262 262 263 267 270 270 269 270 274 276 279 279 276 277 277 276 276 277 275 275 276 278 278 278 278 279 279 279 280 281 280 279 280 277 274 273 273 274 274 274 273 271 271 270 267 265 266 266 267 266 266 266
264 263 263 263 263 263 263 262 263 263 262 262 262 262 262 261 261 261 260 259 259 258 258 259 259 258 259 259 259 259 260 260 260 261 261 262 263 266 271 274 275 275 277 278 279 280 281 282 279 277 278 281 280 280 279 279 279 279 279 280 280 281 282 282 281 277 275 273 272 272 272 273 273 272 271 270 269 266 265 265 265 265 265 265 265
Wind_Speed
5 6 7 6 7 7 7 7 7 7 8 8 10 12 13 14 11 14 11 10 9 9 9 10 11 8 7 10 12 9 9 8 8 8 8 8 9 10 10 9 10 10 10 10 9 9 8 7 8 8 8 9 9 10 9 8 7 7 6 4 6 6 3 3 4 4 8 5 4 4 3 2 2 2 3 3 3 3 2 3 2 3 3 3 3
7 9 8 7 7 7 6 6 5 7 9 10 12 14 13 12 13 12 8 9 10 11 10 10 10 10 10 10 8 7 9 11 11 9 9 8 9 9 9 9 10 11 10 10 9 10 10 9 9 10 9 8 7 6 7 7 8 7 7 5 2 4 4 6 5 5 1 4 5 4 2 1 0 1 1 2 1 2 2 3 3 3 4 3 2
8 4 4 6 8 8 6 4 7 9 6 7 9 7 9 11 11 10 9 11 11 12 10 10 8 9 9 6 9 6 5 5 4 6 5 7 8 8 8 9 10 10 10 10 10 10 10 10 10 9 9 9 9 9 9 10 8 10 10 8 6 0 1 2 6 3 4 2 2 5 3 3 2 2 1 1 1 1 1 3 2 3 3 3 3
12 8 9 9 9 9 7 6 6 5 7 6 7 10 8 9 10 11 11 12 11 13 13 11 10 8 7 5 7 7 5 6 7 6 8 7 9 8 8 9 10 10 10 10 8 9 11 11 10 10 10 10 10 10 10 10 9 8 8 7 7 6 4 5 3 4 2 7 4 1 2 1 2 6 6 2 1 1 1 2 2 2 3 3 3
9 10 9 10 12 11 10 8 6 5 6 8 7 8 7 11 11 12 11 12 11 12 13 10 9 8 6 6 6 5 4 7 7 7 9 9 7 9 10 8 9 8 9 11 11 11 10 10 10 10 10 10 9 9 10 11 11 10 10 8 11 9 8 3 4 3 6 3 2 5 2 1 3 2 3 2 1 2 1 1 2 1 2 2 3
3 6 7 6 7 10 9 7 5 5 7 6 4 6 7 6 6 8 8 8 9 11 13 10 10 10 11 10 10 9 8 9 14 15 10 12 12 6 7 10 9 9 9 10 10 9 10 10 10 10 10 10 9 9 8 8 10 10 11 9 11 6 8 6 5 3 1 1 3 3 1 2 4 2 2 3 1 1 1 1 1 1 1 1 1
6 6 5 10 10 7 9 9 8 6 5 4 5 6 7 6 6 7 8 7 8 9 12 10 10 9 13 13 13 12 12 11 7 5 9 7 6 10 9 9 11 11 10 10 10 10 9 10 10 10 9 9 8 8 9 11 10 10 8 8 9 5 6 9 10 7 2 2 1 0 1 1 1 6 4 3 2 2 3 3 3 1 1 2 1
4 8 7 8 8 5 8 10 9 9 8 7 6 5 7 7 7 8 5 5 5 7 10 11 10 10 12 13 11 11 12 10 8 7 6 7 8 8 9 9 10 10 9 10 9 9 9 9 9 9 9 9 9 9 9 9 7 6 8 7 5 5 7 8 10 7 10 5 3 2 2 2 4 5 3 5 3 4 3 1 2 2 2 3 2
3 4 6 6 10 10 9 10 10 11 9 8 8 6 5 4 4 5 7 6 5 7 8 9 9 9 9 9 11 9 8 4 4 5 6 7 8 6 8 8 8 9 9 9 10 10 9 9 9 9 9 9 9 8 8 8 11 11 10 9 9 7 7 5 6 8 8 7 7 1 2 3 3 3 2 3 3 4 2 3 3 1 2 3 2
5 4 8 10 8 8 7 7 9 10 8 8 6 6 4 2 3 4 5 6 7 8 8 10 10 8 10 11 13 10 6 4 5 8 8 7 8 8 7 7 8 8 9 9 9 10 10 10 10 11 10 10 9 10 9 10 9 10 10 10 9 9 6 6 7 6 7 5 7 7 5 3 2 2 1 3 3 1 3 5 4 6 5 3 1
4 7 7 6 6 5 7 11 9 8 8 8 7 7 5 1 2 3 5 5 7 9 9 11 10 10 10 10 11 10 7 7 7 8 7 8 8 8 7 6 6 7 7 7 9 10 10 10 10 10 9 10 10 10 11 11 10 10 9 10 10 11 8 7 6 5 5 5 7 8 10 10 11 8 8 5 5 4 2 3 2 4 2 2 1
7 9 10 11 11 12 12 15 14 12 10 10 7 6 5 3 1 3 2 5 5 7 9 10 9 10 8 8 10 10 8 8 10 10 9 11 10 9 8 7 7 7 6 6 8 9 8 8 10 9 10 10 11 9 9 10 9 8 9 9 9 10 7 7 6 7 9 6 7 7 7 7 5 6 8 7 9 6 6 4 4 2 2 3 0
8 8 9 10 11 13 15 13 14 17 14 12 10 7 5 6 4 2 4 2 4 4 7 8 8 9 9 9 8 8 9 9 9 8 6 6 6 6 8 8 7 8 9 9 9 11 9 9 10 10 9 9 9 9 10 10 9 9 9 10 10 11 10 10 9 10 10 10 9 7 4 5 6 2 5 7 3 3 6 4 1 1 1 1 1
7 7 8 10 11 12 11 11 9 8 11 12 11 10 8 7 7 6 6 5 4 3 4 6 6 6 5 6 5 6 7 7 6 6 5 5 5 6 7 8 9 10 10 12 10 10 9 10 9 8 9 9 9 10 9 10 10 9 10 10 12 10 9 11 10 11 8 9 5 7 7 6 5 4 5 6 8 7 5 7 5 2 1 1 1
7 9 12 12 13 13 12 13 14 16 18 16 14 13 10 10 8 8 8 7 6 5 3 5 5 5 5 5 5 5 6 5 5 5 5 6 5 6 6 6 8 8 9 8 7 10 11 9 11 11 10 10 10 10 9 9 9 8 9 10 8 8 10 9 9 10 9 10 9 8 7 5 5 5 6 7 7 8 8 7 8 6 2 1 2
10 10 12 13 12 12 12 13 13 11 12 13 16 13 13 12 9 7 6 7 6 5 4 4 5 4 5 5 6 5 5 4 4 4 5 6 8 8 8 7 6 6 6 7 9 9 10 10 10 10 10 10 10 11 10 10 10 10 9 9 11 8 10 12 10 10 10 11 10 7 6 7 5 6 6 5 6 5 5 6 8 7 6 2 1
11 11 11 13 13 13 12 12 12 14 16 16 15 14 13 11 11 12 10 8 7 6 5 4 4 4 5 5 5 5 6 7 6 6 6 6 7 8 9 9 7 6 6 7 8 9 9 10 9 9 9 10 10 10 10 10 10 11 10 10 11 10 10 11 9 10 9 9 8 10 8 7 6 5 5 5 5 4 3 4 6 8 6 3 3
10 10 11 12 12 13 13 13 14 14 14 15 14 11 11 11 9 9 9 10 9 8 7 5 5 5 5 5 5 6 6 6 6 6 6 6 7 7 7 7 10 10 9 9 10 10 10 11 10 10 9 9 10 8 9 10 9 9 9 10 9 9 10 8 9 9 9 8 8 7 7 7 6 7 6 5 5 5 5 5 4 1 3 7 5
13 12 11 11 11 12 12 13 13 14 13 13 12 13 14 13 12 11 12 9 8 7 7 6 4 4 4 6 6 7 7 7 6 6 6 7 8 8 9 10 8 9 9 9 10 9 10 12 11 10 8 10 8 9 8 8 9 9 9 9 9 10 10 10 9 9 9 9 10 10 8 7 7 8 6 6 5 6 6 5 4 4 3 3 4
10 10 9 8 8 9 9 10 11 12 11 11 12 13 16 14 15 14 12 11 11 11 8 8 7 5 5 5 6 6 6 7 7 7 8 9 9 9 9 9 11 8 9 9 11 12 12 12 11 11 10 9 10 9 9 9 8 10 9 9 10 11 11 11 10 9 8 9 10 11 10 8 8 7 7 6 7 6 6 6 6 5 4 4 4
7 7 6 7 7 7 8 8 9 10 10 11 12 13 13 14 15 15 15 15 15 13 11 9 7 7 6 7 7 7 7 6 7 8 9 9 9 9 9 10 7 9 8 9 10 11 11 12 11 13 12 11 11 11 9 9 10 10 10 10 9 12 13 11 10 11 9 10 11 11 10 9 9 9 8 7 7 7 6 5 5 5 5 5 7
5 5 6 8 8 7 7 7 6 8 10 12 11 12 14 14 12 13 15 16 16 15 12 11 8 7 8 8 7 6 6 6 7 8 9 9 9 9 9 8 10 10 9 10 11 10 11 11 11 11 11 10 10 11 10 10 11 12 11 10 11 12 13 12 11 12 12 9 9 11 10 10 10 10 9 10 9 9 8 8 8 8 7 7 7
9 8 6 5 5 5 5 7 9 10 11 11 12 12 11 11 13 12 13 12 11 12 12 10 10 9 9 8 7 7 6 7 8 8 9 9 9 9 8 10 10 10 9 9 10 11 11 11 11 10 11 10 11 10 10 11 12 13 12 11 11 11 12 13 13 13 13 10 11 11 12 10 8 10 10 9 9 10 9 9 9 8 8 8 7
8 8 9 10 9 11 14 17 17 17 17 16 13 12 11 11 11 11 12 12 12 11 11 11 11 12 10 9 9 7 7 7 8 8 9 9 9 8 8 10 10 9 9 8 11 11 10 12 11 11 10 11 11 11 11 11 12 12 13 13 11 10 11 13 12 12 13 13 14 12 12 12 12 12 11 10 10 10 10 9 9 8 8 8 7
11 11 10 11 13 14 12 11 11 11 12 13 14 14 13 14 14 14 13 13 13 12 13 13 13 14 13 12 12 10 9 9 8 8 9 9 9 9 8 10 9 10 10 8 9 9 10 10 11 11 12 12 12 12 12 12 12 13 14 16 15 13 11 12 11 11 11 14 13 14 13 13 14 13 11 11 11 14 11 10 11 9 9 8 6
12 13 15 14 10 9 10 10 9 9 9 9 10 11 11 11 13 11 12 13 13 12 12 13 12 13 13 14 13 12 12 12 11 10 10 9 9 8 9 9 9 11 10 10 10 10 12 13 12 14 14 13 12 12 14 16 16 16 15 15 15 15 13 11 11 11 12 13 14 14 13 14 14 16 14 13 13 15 12 12 12 10 9 8 9
7 8 8 9 13 13 11 10 10 9 9 8 8 9 9 9 11 12 11 10 10 11 11 11 12 12 13 14 13 13 12 11 10 10 10 10 9 8 8 9 9 10 10 10 10 11 11 12 14 13 14 14 14 15 16 16 15 15 15 13 15 14 13 11 12 11 10 11 12 12 13 15 16 16 15 16 15 14 12 15 14 13 11 11 10
2 3 5 5 5 6 7 8 10 10 11 10 9 9 9 9 9 9 9 9 9 10 10 11 10 10 11 12 13 12 11 11 10 10 10 9 9 8 8 8 8 9 10 11 11 12 12 12 13 12 13 12 13 14 15 12 11 11 12 14 16 15 11 11 11 11 11 12 13 13 12 14 16 16 16 15 16 16 12 13 11 11 12 12 11
6 6 4 3 5 4 5 6 6 6 7 7 7 9 9 9 9 10 10 10 9 9 9 9 9 9 9 9 10 10 11 12 11 10 10 10 10 10 9 8 8 8 8 10 10 10 11 12 11 12 12 12 13 14 12 11 11 13 14 16 16 15 11 11 11 10 11 11 11 11 11 12 15 15 15 15 17 15 13 11 11 12 12 11 9
6 6 6 5 6 6 5 5 4 5 6 7 7 7 7 8 9 10 10 11 10 10 10 10 10 9 9 9 9 9 10 11 12 12 11 10 9 9 8 7 9 8 8 9 9 10 11 12 11 12 12 11 13 11 14 19 16 15 15 14 13 15 14 13 13 11 11 11 11 11 10 12 14 16 17 20 22 22 20 14 15 15 13 12 10
5 5 6 5 5 6 7 8 8 9 9 8 8 7 6 6 7 7 8 8 7 9 9 9 10 9 9 9 8 9 10 11 11 11 10 11 11 9 8 7 6 6 7 8 9 10 10 10 12 12 13 13 12 11 16 18 22 22 15 15 14 14 14 15 15 16 12 12 11 11 10 13 15 15 15 19 22 23 22 19 19 20 20 18 16
6 6 6 6 6 6 7 7 6 5 4 4 5 5 5 7 8 9 9 8 7 7 8 9 9 9 9 10 10 10 10 11 10 11 12 12 11 11 11 10 9 8 7 5 8 10 10 10 10 11 13 13 13 13 17 20 22 24 20 14 13 13 13 15 15 15 10 9 11 11 9 9 11 14 12 14 18 21 21 20 21 23 22 20 18
6 6 6 6 6 5 5 6 6 7 6 6 5 6 6 6 8 8 7 7 7 8 8 8 8 9 10 10 10 10 10 10 9 9 9 9 10 11 11 11 11 9 7 7 9 9 10 10 11 12 13 13 13 12 17 20 22 23 24 19 13 13 13 14 15 16 12 10 10 10 9 9 9 19 14 12 13 15 19 21 20 21 22 21 19
7 7 7 6 5 5 5 5 6 6 5 5 4 5 5 6 7 8 8 8 9 9 8 8 7 7 8 9 10 10 10 10 10 10 9 8 9 9 10 9 9 9 8 8 8 9 9 10 11 12 12 12 13 11 17 20 21 23 24 21 14 14 14 14 16 16 11 11 12 11 11 10 10 13 11 13 13 12 14 14 14 13 12 16 18
6 6 6 5 6 5 5 6 5 6 5 5 6 5 6 7 7 8 8 8 9 9 9 9 9 9 8 8 9 9 9 10 10 9 9 9 9 9 9 8 7 8 8 9 9 9 9 9 9 10 11 12 11 13 17 20 21 23 25 21 15 14 13 13 12 11 11 10 11 11 11 10 10 11 12 15 13 15 14 13 13 13 11 12 13
7 7 8 7 6 7 6 7 5 4 5 3 4 3 6 8 8 8 8 7 7 8 10 9 9 9 9 9 9 11 10 9 9 8 9 10 10 10 10 9 7 8 7 7 8 8 10 11 10 10 10 12 11 13 17 19 22 23 25 16 13 14 14 13 13 13 11 8 9 10 10 13 13 9 17 25 20 13 15 16 16 13 11 10 11
7 6 8 8 6 7 7 6 6 5 5 5 3 3 5 7 8 7 7 8 7 8 9 9 8 10 10 11 11 12 13 11 9 9 9 9 9 10 10 7 8 8 8 8 8 8 8 9 10 10 10 11 11 12 17 19 21 24 19 13 12 12 12 13 13 13 11 9 8 10 10 9 12 11 19 25 25 20 14 16 14 14 12 10 8
7 7 6 7 7 6 6 6 7 7 6 4 3 4 6 7 7 7 8 9 9 9 9 8 9 9 11 11 11 12 14 13 11 11 11 11 10 8 8 7 8 10 9 9 8 8 9 9 10 11 11 11 11 10 16 19 21 23 19 14 11 12 13 13 12 11 6 5 8 17 15 13 11 11 22 26 27 20 15 15 15 15 15 12 11
8 8 8 7 7 7 7 6 6 8 7 3 3 4 5 7 8 8 7 9 9 10 9 9 10 11 11 11 11 12 13 12 12 12 12 13 13 11 10 8 8 8 9 9 8 8 9 8 9 11 10 12 11 10 14 18 21 23 19 13 12 11 12 12 9 5 5 4 7 13 21 17 13 15 25 26 28 21 15 16 15 15 13 14 12
8 7 7 7 6 4 6 7 8 9 6 4 2 4 5 8 9 7 8 9 10 10 9 9 10 10 10 11 11 13 13 11 12 14 13 13 12 12 11 10 10 8 9 8 8 8 11 10 8 9 9 10 11 9 10 18 20 23 25 15 11 11 13 12 8 6 7 7 6 7 16 23 21 22 25 27 27 26 14 12 10 11 13 12 10
8 8 5 5 6 6 8 9 8 7 6 4 3 4 8 8 9 9 10 9 10 10 9 9 10 12 12 13 12 12 13 13 12 13 13 13 12 13 13 13 12 10 8 9 9 9 10 10 9 9 9 9 9 10 9 17 20 23 25 24 11 13 11 10 10 10 8 7 6 8 7 20 24 24 24 27 28 28 19 13 11 9 11 12 13
6 6 4 4 4 6 7 9 8 7 7 3 3 6 9 8 8 11 10 8 9 7 7 7 10 11 12 12 12 11 11 12 13 13 13 15 14 13 13 13 12 11 13 13 11 9 9 9 8 8 9 10 9 12 9 13 19 22 23 28 16 12 13 11 12 12 9 6 8 8 9 17 25 24 25 27 29 28 27 15 13 15 14 18 13
6 6 3 2 5 8 9 10 9 5 4 4 4 8 10 10 11 13 8 7 7 6 8 10 11 12 12 12 11 12 13 12 13 13 14 16 15 14 14 13 13 13 13 14 13 11 10 9 7 6 8 9 9 9 15 12 17 20 23 25 24 14 17 12 12 13 13 10 8 10 11 22 26 26 28 29 29 31 25 14 20 20 20 21 16
5 4 5 2 5 7 10 11 11 7 5 4 5 9 11 11 15 10 6 5 5 8 9 11 12 12 13 12 12 12 12 11 11 12 12 15 16 14 13 12 12 12 12 13 12 10 9 10 11 10 8 6 7 7 11 17 15 21 23 26 29 23 20 14 12 12 9 8 9 10 13 24 27 27 27 27 27 26 17 22 23 24 24 21 11
8 9 5 3 7 9 11 13 13 10 7 5 5 9 12 15 13 5 7 7 8 9 10 12 13 13 13 12 12 12 13 12 12 11 12 13 15 14 13 12 11 11 11 12 13 11 10 11 11 11 9 5 5 6 6 12 20 20 22 25 28 27 26 23 14 11 9 9 12 19 24 28 29 28 28 27 24 27 25 23 25 25 22 10 11
7 7 6 5 7 8 11 13 16 14 11 6 7 7 12 15 10 7 8 6 8 11 13 14 14 13 13 13 14 15 14 12 14 11 12 11 13 13 13 13 12 11 12 12 13 12 11 11 12 11 10 9 6 6 6 7 11 15 16 22 27 27 26 27 20 13 16 17 19 21 24 25 26 24 20 17 14 15 22 25 25 23 10 11 10
10 10 7 8 7 10 13 14 16 17 12 8 7 7 9 10 11 9 7 7 8 11 13 14 15 14 13 12 12 12 13 13 12 11 10 11 11 12 12 13 12 12 13 12 12 12 12 12 12 12 11 9 8 7 6 6 7 7 9 11 16 18 22 25 17 11 13 12 16 17 14 18 16 25 24 21 18 19 21 20 16 11 11 11 10
8 7 6 8 9 11 13 14 16 17 13 11 11 11 10 9 8 6 6 7 11 12 13 15 16 14 13 12 11 15 16 14 12 12 11 12 11 12 12 14 13 13 12 13 12 12 13 13 13 12 10 9 10 9 8 7 7 8 9 11 11 12 11 12 11 11 11 12 12 15 18 15 14 14 15 11 10 10 7 11 14 14 12 12 13
12 10 8 10 10 13 14 15 17 15 13 14 14 13 11 9 8 6 6 9 14 15 14 15 15 12 14 11 10 12 11 13 13 12 11 12 13 14 14 15 16 14 13 13 13 14 14 13 12 11 11 11 11 11 11 10 12 15 12 9 10 12 12 11 13 16 12 10 10 11 11 12 12 13 9 8 9 8 7 8 9 10 10 10 10
11 10 11 13 13 13 15 17 17 14 14 14 15 14 11 8 7 7 8 12 14 14 15 15 13 11 12 11 11 11 12 11 12 13 14 14 20 26 21 17 17 22 28 29 23 17 16 12 12 13 12 13 14 12 8 16 20 20 21 23 20 20 18 12 17 26 16 12 12 12 13 13 13 11 13 13 12 12 12 10 9 8 8 9 9
14 14 16 15 15 15 15 17 16 13 13 14 15 15 12 10 8 9 10 13 14 14 14 15 12 12 12 13 12 12 12 12 11 13 13 15 15 16 25 31 31 30 29 29 30 32 33 31 21 15 14 21 23 19 14 17 20 22 25 26 25 24 25 22 25 20 15 14 13 13 13 13 12 12 12 14 13 12 11 11 11 10 9 9 8
Wind_Direction
343 20 359 327 301 280 263 244 242 238 231 213 211 211 208 206 193 206 195 185 177 175 179 179 181 176 188 200 205 180 191 188 195 198 195 195 185 188 184 184 176 175 179 174 176 170 167 156 157 167 164 167 172 183 173 169 169 170 152 170 163 153 157 173 180 144 126 89 75 78 83 43 83 65 74 83 97 116 127 124 119 110 98 92 84
16 16 2 355 309 284 274 264 248 244 231 213 214 212 208 203 204 204 178 186 190 187 183 187 190 192 187 195 183 177 183 190 196 191 199 196 193 192 188 183 177 180 177 177 172 168 164 167 170 171 170 175 173 152 157 165 162 163 162 159 254 188 162 180 183 158 130 156 151 142 91 115 120 333 13 44 75 111 131 127 128 112 100 100 99
27 0 350 295 296 301 304 293 273 247 271 233 236 223 209 206 208 190 187 189 194 190 184 194 186 191 193 181 186 180 198 200 200 196 191 197 194 193 190 189 184 181 176 177 174 174 170 168 176 169 174 163 163 170 169 175 176 174 181 175 158 155 106 164 201 254 131 104 95 123 161 162 188 242 220 275 348 149 118 116 119 112 106 95 100
350 352 312 306 310 307 307 292 267 283 271 267 243 226 219 214 204 194 194 194 191 193 195 193 184 175 171 138 165 173 176 162 187 178 188 179 198 190 197 189 185 185 176 174 176 178 175 177 170 173 176 177 172 166 174 178 173 179 187 201 169 147 192 187 220 203 200 150 166 263 118 224 187 213 194 143 351 279 143 113 118 123 126 114 108
350 332 319 334 333 323 311 298 301 280 265 256 249 239 224 218 206 198 194 194 194 189 188 168 146 135 131 92 111 112 101 162 175 205 189 189 189 195 196 184 186 181 177 183 183 181 179 177 174 175 174 176 174 175 178 184 181 183 182 177 192 174 166 180 189 179 230 311 134 131 109 229 237 74 124 182 148 183 211 29 50 44 104 90 87
289 290 302 291 304 307 320 316 309 275 266 264 261 253 259 258 222 206 198 192 194 189 182 169 176 166 157 158 169 178 187 181 197 196 170 188 196 155 174 190 182 188 186 185 187 180 181 179 174 172 177 177 183 181 174 167 184 186 192 190 192 226 163 149 168 194 263 204 263 339 324 189 158 169 177 193 136 272 281 244 297 319 350 55 68
304 304 345 353 316 324 344 342 335 311 284 280 266 244 229 221 217 213 203 194 191 186 179 179 184 186 190 191 189 188 194 211 202 167 187 188 169 183 183 173 187 186 187 188 189 186 179 179 178 180 178 177 175 172 178 187 183 190 176 195 203 164 152 172 180 172 136 219 188 191 105 4 116 138 195 87 200 162 221 222 211 190 241 281 253
331 323 341 285 272 11 341 325 330 330 324 322 296 275 236 222 190 194 200 195 186 182 185 190 191 192 198 204 204 206 209 205 180 190 171 175 185 181 178 184 184 189 184 187 190 188 185 181 179 174 176 180 176 186 184 180 177 182 190 199 183 193 197 188 171 169 178 168 151 144 82 81 53 46 64 165 141 170 196 167 247 224 249 238 267
277 271 270 292 359 356 335 336 334 336 341 336 320 304 279 253 220 184 171 160 166 180 189 200 205 201 204 206 212 221 218 195 142 152 172 167 185 176 185 182 183 190 188 182 187 186 186 183 178 178 178 178 183 186 185 177 183 176 179 187 198 197 204 214 162 185 203 166 148 111 93 63 53 51 86 54 153 180 182 183 195 126 237 224 231
322 301 353 356 338 334 324 307 347 354 332 325 332 328 319 305 174 179 184 161 161 175 187 199 204 201 210 215 219 216 196 162 156 170 175 171 188 187 185 181 187 186 189 187 184 187 184 181 183 184 183 178 183 187 176 178 181 186 189 192 192 197 196 208 201 190 199 169 183 145 147 129 72 89 62 113 44 16 180 190 191 179 195 180 194
324 343 347 346 306 310 343 4 353 358 354 349 356 354 348 15 148 161 195 166 160 172 184 199 202 206 214 219 225 223 203 176 180 183 169 172 191 186 185 187 181 195 188 191 193 187 189 186 183 187 184 184 184 182 188 182 182 184 183 186 193 195 195 194 206 192 189 177 184 180 171 174 171 175 181 186 167 155 140 240 194 207 192 167 191
353 8 348 340 355 6 7 8 4 357 4 7 353 345 354 0 53 165 180 193 187 183 179 194 200 213 217 217 220 222 206 203 206 197 188 187 187 181 175 173 187 188 188 194 200 193 192 190 191 187 190 186 190 187 181 184 179 178 181 187 192 196 189 186 197 182 182 188 198 199 195 187 171 174 175 164 173 186 173 174 180 133 235 220 67
6 354 348 357 13 4 2 2 1 5 1 353 354 346 351 4 18 0 270 285 230 208 201 195 199 211 215 219 221 217 218 217 219 219 199 204 192 183 174 187 171 182 194 195 196 192 190 188 192 194 191 195 189 182 187 180 178 183 184 186 190 190 191 186 189 192 181 184 191 197 192 190 187 136 148 166 163 117 155 127 156 70 225 110 114
337 342 356 11 9 9 5 0 8 10 1 356 358 5 2 10 6 357 321 338 318 282 241 218 219 220 223 232 238 229 232 220 221 224 205 211 199 201 194 193 191 198 190 201 187 183 188 199 194 196 198 193 191 191 183 186 181 185 184 187 193 196 183 191 195 184 191 203 179 178 195 190 178 159 162 156 159 150 170 173 141 144 38 275 77
348 356 18 18 14 11 11 7 7 7 8 13 11 5 5 19 7 357 341 338 341 317 308 255 246 237 233 232 230 237 243 244 234 220 193 193 206 212 208 205 204 202 204 201 185 188 196 191 196 195 193 191 187 187 192 184 183 184 191 195 195 188 189 183 194 182 186 191 189 193 185 188 178 172 174 181 169 180 162 159 152 155 184 193 262
11 21 24 24 16 13 16 17 13 15 16 15 14 8 9 6 4 4 348 331 337 333 304 283 268 265 248 242 239 235 246 256 250 234 224 196 199 204 213 212 218 208 207 196 200 192 197 201 199 202 196 194 192 192 185 182 181 185 188 190 197 176 187 187 193 186 193 190 188 180 177 198 178 178 190 175 183 177 161 156 168 166 165 205 177
29 34 32 22 16 17 19 17 15 15 19 20 17 12 13 7 1 354 350 345 342 322 289 272 274 269 262 244 239 236 231 232 233 237 230 213 205 211 213 211 209 212 212 206 199 199 199 201 202 202 201 200 198 197 193 187 182 190 189 186 194 181 187 193 186 191 192 179 185 183 190 180 181 176 183 182 170 162 165 171 181 180 181 182 175
28 34 33 26 21 15 13 14 16 18 18 18 17 15 16 17 14 4 351 347 334 324 309 294 274 270 263 257 240 230 238 241 235 234 223 219 216 213 213 210 210 205 196 192 196 199 204 203 205 205 204 200 203 197 199 195 188 198 191 194 191 171 189 191 195 189 185 179 181 182 188 186 175 179 183 168 169 166 159 170 182 160 167 196 192
28 24 23 22 17 13 12 12 11 16 14 15 14 15 21 27 20 14 6 345 326 323 316 308 288 262 252 244 232 230 222 223 223 220 220 224 225 219 216 220 213 205 202 195 193 190 192 199 204 207 201 205 201 203 198 200 194 197 193 195 183 182 188 192 188 185 185 177 181 186 185 187 168 179 169 170 169 167 169 166 170 157 178 192 175
28 25 22 20 18 15 14 14 13 13 15 13 14 16 21 17 18 15 11 10 2 358 340 318 306 281 271 262 258 244 240 232 225 219 221 222 223 221 221 220 221 209 209 199 200 200 199 198 197 196 198 201 200 199 195 199 195 206 194 195 188 182 191 193 188 188 178 186 181 188 186 181 171 170 173 171 171 173 165 171 171 174 172 174 172
37 33 32 30 24 17 14 15 15 12 15 17 18 20 18 16 15 11 10 7 9 4 356 343 320 303 281 271 265 259 250 238 238 230 233 230 225 220 222 223 212 214 202 205 204 204 201 202 199 204 200 191 190 194 192 193 199 204 204 201 185 190 192 196 180 187 187 184 189 186 183 181 165 174 174 167 173 170 167 174 173 173 177 176 178
65 49 34 28 30 29 26 20 19 22 25 26 20 21 23 22 14 9 7 7 2 0 360 348 341 319 301 284 277 265 257 253 246 242 239 237 234 229 226 219 216 219 200 209 207 204 205 202 203 206 203 202 200 195 187 193 201 202 204 202 200 192 197 192 184 187 185 186 180 183 180 176 178 177 171 177 171 170 175 173 183 182 182 181 192
27 33 44 47 38 30 30 31 34 34 31 27 24 22 19 16 13 11 12 6 1 351 350 353 352 344 331 316 302 289 273 261 255 253 250 244 241 237 225 226 226 221 210 211 208 207 204 204 207 206 203 202 199 197 195 196 201 202 204 205 203 196 197 191 190 191 183 175 179 188 184 172 167 178 181 178 172 178 176 180 181 182 183 186 188
25 27 22 20 18 15 19 17 13 12 11 12 13 14 13 15 15 12 9 1 359 359 354 359 359 355 350 342 333 319 302 280 267 262 260 256 251 248 232 232 233 225 217 213 214 210 207 208 210 207 202 202 199 201 199 204 207 205 207 208 205 203 204 205 198 185 180 182 186 179 183 174 174 176 177 177 182 179 180 181 177 183 185 184 189
19 20 19 17 20 20 19 17 15 10 8 7 7 6 6 5 7 6 1 358 359 358 0 360 359 357 358 360 353 343 332 310 289 278 271 267 262 257 249 240 235 234 227 219 216 209 212 209 210 207 203 205 203 199 202 204 204 208 212 213 210 207 207 209 202 194 186 185 182 189 177 171 174 178 176 181 179 180 179 178 182 180 183 180 175
11 10 12 14 11 12 14 11 11 11 10 8 6 5 2 2 2 359 357 354 355 356 357 358 358 358 357 358 357 353 346 335 321 311 294 281 271 261 252 245 235 239 233 225 219 215 215 216 215 215 212 211 206 205 209 210 208 208 210 212 212 210 210 208 205 201 193 191 190 188 177 177 178 181 183 180 175 180 177 179 179 179 175 171 179
11 7 353 357 6 4 358 0 2 4 6 6 5 3 3 359 356 355 353 352 349 353 352 357 355 356 355 355 354 353 347 341 331 317 311 302 291 274 257 250 237 237 235 229 224 224 222 223 223 218 218 214 210 211 213 212 211 209 209 208 210 210 207 206 210 205 198 195 195 190 184 183 185 186 177 178 176 175 177 182 181 175 171 170 176
350 355 6 3 341 339 350 350 355 358 356 356 360 357 356 356 352 349 348 348 348 349 350 350 352 352 354 350 347 343 345 341 335 328 318 308 299 288 270 259 247 242 237 234 231 227 228 224 226 221 221 216 215 216 215 210 206 202 205 210 210 211 205 207 206 202 200 198 198 195 193 190 190 188 184 179 172 177 173 177 177 167 170 170 174
353 342 341 347 339 342 331 339 342 348 355 353 348 351 348 350 352 346 347 347 345 345 345 347 346 349 347 343 339 339 338 339 338 336 332 323 316 305 293 277 260 251 243 240 239 235 233 231 229 227 224 218 220 219 214 207 205 208 210 213 211 210 205 208 208 206 203 201 200 200 198 195 197 197 190 180 182 171 162 168 172 168 170 170 165
314 313 319 325 330 334 335 326 336 343 347 347 350 350 348 344 345 345 342 340 343 342 343 341 344 340 338 337 336 334 336 335 337 339 335 330 321 312 303 293 278 261 254 247 245 239 236 235 232 230 227 224 225 224 219 211 204 207 207 211 211 212 209 207 210 208 208 203 199 197 200 193 197 196 192 189 187 186 187 178 167 169 170 167 170
275 287 297 302 317 325 331 338 338 346 343 351 345 340 337 337 337 337 330 325 331 326 335 333 332 333 332 334 336 335 334 335 334 332 334 333 331 324 312 294 279 266 259 252 244 247 242 238 236 233 230 229 230 229 220 212 211 207 203 209 210 212 209 211 212 211 209 200 198 195 189 189 192 194 196 191 187 188 186 188 183 177 172 169 169
276 290 290 301 306 315 323 320 320 313 313 319 324 324 335 335 336 334 328 322 320 322 323 326 322 327 331 335 336 334 334 330 332 332 331 329 327 326 322 316 308 297 276 261 256 250 249 245 242 240 238 236 236 231 221 218 214 211 205 207 210 213 208 211 211 211 207 199 196 191 189 184 185 184 178 188 191 191 187 184 181 183 185 186 181
271 268 271 268 278 283 295 305 308 318 320 319 325 333 332 337 334 324 323 322 323 323 321 319 320 324 330 329 330 331 328 326 327 324 319 319 321 320 319 318 312 302 300 282 262 253 251 248 243 245 244 241 242 226 221 219 216 213 209 203 214 211 211 213 212 212 207 199 194 191 188 190 187 183 180 180 177 184 187 184 181 183 189 189 192
251 252 254 262 270 277 276 278 280 286 298 300 326 320 318 334 323 320 326 325 327 325 325 319 319 322 321 324 321 325 322 320 321 322 321 317 316 312 307 303 299 301 293 282 273 261 255 248 245 245 247 246 242 235 225 222 217 214 211 205 214 211 214 215 213 211 204 196 191 189 186 187 182 182 178 177 174 171 175 176 178 181 184 192 194
271 276 275 271 275 279 288 293 296 292 300 319 321 327 330 328 328 323 318 321 322 321 321 320 322 323 324 321 321 316 316 315 317 315 318 318 315 308 304 299 298 292 291 286 282 277 263 253 249 245 249 249 245 235 228 225 220 215 213 208 212 214 216 218 215 211 206 196 191 190 189 184 174 180 181 176 170 177 174 175 177 179 178 185 188
278 285 285 285 280 277 279 282 276 288 285 290 293 313 336 318 320 313 311 316 316 316 315 319 324 325 325 324 323 320 316 313 307 309 312 315 315 311 306 302 296 288 276 272 273 266 268 264 256 251 250 253 249 234 230 227 222 218 213 212 213 213 217 218 217 214 208 195 190 185 184 189 188 184 187 185 182 172 173 174 177 177 178 181 190
261 261 269 269 266 267 266 266 275 274 280 288 299 328 319 313 314 311 314 312 314 310 309 313 316 320 322 325 325 321 317 311 310 310 310 306 309 308 306 302 291 284 284 279 273 265 262 262 259 252 248 251 251 238 234 228 223 220 213 215 214 214 218 219 219 214 209 202 187 183 179 180 187 186 187 187 185 176 176 177 173 174 177 179 186
257 264 265 266 265 264 269 263 273 277 269 283 314 334 321 313 307 307 311 308 309 303 304 309 310 316 319 320 321 316 311 310 313 316 314 313 308 300 290 290 289 295 290 276 269 272 263 256 254 253 245 250 249 234 232 232 226 220 213 213 213 214 217 219 219 211 205 198 189 190 188 188 184 183 187 188 186 178 177 177 172 172 176 182 184
241 244 252 256 254 250 258 268 270 276 277 282 311 328 317 299 300 303 301 300 300 300 307 312 314 317 317 316 314 309 303 303 311 314 317 314 312 308 303 294 273 261 265 275 272 265 264 253 247 246 243 243 250 238 228 233 229 224 219 216 213 212 216 217 209 193 192 183 189 193 194 193 188 183 188 189 187 182 182 181 178 173 178 183 180
250 247 235 243 255 271 278 271 269 270 279 285 306 312 297 294 295 297 295 294 295 295 300 307 310 311 310 309 307 303 299 304 312 313 314 310 307 307 303 299 291 279 273 264 255 256 261 262 249 243 241 239 245 240 222 228 229 226 221 216 213 210 216 212 200 193 190 202 190 188 198 199 192 188 190 191 191 188 180 182 169 179 177 178 157
247 251 252 253 257 249 255 261 266 274 283 292 319 306 286 282 283 283 277 278 283 291 301 310 313 311 309 307 305 300 304 309 311 311 309 305 303 303 302 300 294 288 277 270 256 249 247 254 250 244 245 239 234 237 225 222 228 228 226 222 214 215 212 201 201 200 198 188 181 188 182 197 194 189 190 192 195 195 183 181 186 186 188 171 159
252 260 251 247 262 269 275 278 272 273 270 268 274 277 276 279 278 271 270 279 279 281 292 300 300 298 297 296 296 299 308 308 308 308 308 303 299 297 295 296 295 291 287 280 274 263 256 251 245 237 241 244 232 226 225 223 227 229 230 227 223 215 204 197 198 204 197 186 183 180 180 194 195 191 192 194 195 197 189 182 189 180 164 168 164
281 283 261 232 276 279 274 272 277 269 259 258 257 271 277 279 275 273 284 279 286 297 303 301 296 294 293 293 296 303 301 304 301 302 301 295 294 295 294 293 289 289 285 284 280 274 268 266 259 240 236 236 232 227 224 220 224 229 232 234 227 211 205 200 203 206 203 195 182 184 181 188 193 193 195 196 195 195 187 181 178 176 174 170 159
277 263 286 296 274 276 282 284 283 277 264 257 254 272 276 278 273 288 292 288 299 299 298 296 294 292 295 294 296 295 292 291 292 294 292 289 289 289 288 286 287 284 284 281 280 276 269 268 266 263 248 212 220 222 225 223 221 225 233 235 236 219 197 203 206 213 202 182 177 172 175 186 194 197 198 198 198 196 181 179 176 180 175 169 148
300 299 309 310 280 285 288 288 287 287 277 265 249 257 270 272 277 300 288 296 295 296 296 292 291 290 289 291 292 289 289 289 287 289 288 286 287 288 287 283 280 277 273 273 274 272 266 266 267 262 260 230 205 215 219 226 225 223 229 235 238 230 212 201 201 211 200 195 189 181 181 187 192 195 196 199 200 198 179 176 180 178 175 149 147
296 302 311 299 294 289 287 287 290 287 284 271 259 244 263 271 285 287 289 291 293 294 293 289 288 286 286 291 292 289 285 283 284 281 277 275 277 280 279 280 279 271 268 266 268 268 265 263 263 262 258 250 225 210 218 215 222 226 227 235 238 240 222 209 196 192 191 188 189 189 190 191 193 192 192 193 191 190 177 175 180 181 154 138 143
305 305 319 308 297 293 290 289 289 289 291 285 270 261 259 276 285 290 291 290 289 287 287 287 284 285 286 284 284 287 290 289 282 280 273 273 271 273 273 273 270 268 268 265 263 263 263 260 258 259 259 253 238 226 210 199 204 216 216 223 232 242 230 215 203 184 180 180 185 186 187 191 194 195 193 190 185 185 184 176 175 150 139 154 156
300 306 312 299 292 286 287 289 287 288 296 294 287 281 279 281 283 288 295 295 287 283 283 283 283 285 284 284 283 283 284 283 281 279 280 277 270 267 267 265 266 264 262 263 260 257 254 254 257 257 258 253 246 237 221 196 195 201 214 214 224 230 227 203 194 182 173 173 174 187 189 193 194 196 194 188 180 180 158 143 144 154 155 153 153
310 314 310 295 297 295 291 289 285 290 295 293 289 286 287 290 293 300 298 294 289 288 284 280 279 282 281 280 276 278 276 279 279 277 266 265 272 272 267 267 259 256 255 257 259 258 254 250 251 252 251 251 249 241 229 204 209 208 206 206 213 218 220 208 184 169 161 165 170 179 183 186 188 188 166 155 155 144 136 140 137 138 146 148 150
307 308 303 302 297 294 294 293 292 296 295 292 292 291 293 299 304 300 296 289 289 289 286 282 280 278 278 280 279 275 274 275 277 278 281 279 268 266 264 262 267 261 258 257 255 254 252 252 251 247 236 242 246 245 221 207 215 214 215 216 217 217 218 202 180 177 162 166 177 180 184 185 186 180 175 174 167 156 152 152 159 142 146 155 158
315 314 309 305 303 302 301 296 296 302 298 298 296 296 298 302 304 295 291 286 285 285 282 280 279 278 279 281 281 281 279 277 273 275 273 275 283 278 266 263 262 263 263 262 261 260 260 257 251 255 246 238 244 246 223 212 213 217 220 220 220 218 218 204 180 174 172 176 178 183 185 185 185 180 180 177 166 161 158 154 155 153 150 147 143